WJA591 CYHZ-CYWG

Flight info

Callsign WJA591
Flight time N/A
Altitude 38000
Route KELNO DCT EMLOB DCT MIVAX DCT GRAMP DCT YGQ DCT VESRU DCT EMIVA NORAK6
Aircraft B38M/M-SDE1FGHILORVWXY/HB1

Departure

Time 2026-05-04 22:48
Airport Halifax / Stanfield International Airport (CYHZ)

Arrival

Time N/A
Airport Winnipeg / James Armstrong Richardson International Airport (CYWG)
Time Latitude Longitude Altitude Speed Heading
2026-05-04 22:10 44.88855 -63.51423 454 ft 0 kts 239°
2026-05-04 22:37 44.88855 -63.51422 445 ft 1 kts 239°
2026-05-04 22:37 44.88867 -63.51394 454 ft 3 kts 239°
2026-05-04 22:38 44.88878 -63.51368 454 ft 4 kts 239°
2026-05-04 22:38 44.88889 -63.51342 454 ft 4 kts 239°
2026-05-04 22:38 44.88897 -63.51322 454 ft 0 kts 239°
2026-05-04 22:42 44.88896 -63.51325 454 ft 1 kts 238°
2026-05-04 22:43 44.88888 -63.51337 454 ft 1 kts 207°
2026-05-04 22:43 44.88880 -63.51333 454 ft 2 kts 146°
2026-05-04 22:43 44.88848 -63.51296 454 ft 7 kts 156°
2026-05-04 22:43 44.88809 -63.51287 454 ft 7 kts 172°
2026-05-04 22:44 44.88738 -63.51272 454 ft 13 kts 171°
2026-05-04 22:44 44.88692 -63.51200 454 ft 12 kts 82°
2026-05-04 22:44 44.88708 -63.51070 454 ft 16 kts 80°
2026-05-04 22:44 44.88740 -63.50914 454 ft 17 kts 47°
2026-05-04 22:45 44.88837 -63.50813 453 ft 19 kts 36°
2026-05-04 22:45 44.89009 -63.50638 453 ft 7 kts 51°
2026-05-04 22:45 44.89011 -63.50614 453 ft 0 kts 103°
2026-05-04 22:46 44.89011 -63.50613 453 ft 1 kts 103°
2026-05-04 22:46 44.89005 -63.50590 453 ft 4 kts 115°
2026-05-04 22:46 44.88978 -63.50533 453 ft 10 kts 124°
2026-05-04 22:47 44.88934 -63.50446 453 ft 12 kts 126°
2026-05-04 22:47 44.88889 -63.50429 453 ft 6 kts 214°
2026-05-04 22:47 44.88737 -63.50581 453 ft 60 kts 215°
2026-05-04 22:47 44.88205 -63.51105 452 ft 124 kts 215°
2026-05-04 22:48 44.87373 -63.51942 580 ft 162 kts 218°
2026-05-04 22:48 44.86429 -63.52881 1204 ft 171 kts 218°
2026-05-04 22:48 44.85423 -63.53814 1900 ft 182 kts 217°
2026-05-04 22:48 44.84276 -63.54764 2495 ft 191 kts 217°
2026-05-04 22:49 44.83131 -63.55670 3528 ft 190 kts 218°
2026-05-04 22:49 44.82151 -63.56900 4179 ft 193 kts 243°
2026-05-04 22:49 44.81654 -63.58709 4724 ft 206 kts 264°
2026-05-04 22:49 44.81784 -63.60774 5375 ft 220 kts 287°
2026-05-04 22:50 44.82606 -63.62605 6387 ft 227 kts 303°
2026-05-04 22:50 44.83556 -63.64386 7191 ft 231 kts 298°
2026-05-04 22:50 44.84498 -63.66273 7950 ft 238 kts 299°
2026-05-04 22:50 44.85480 -63.68164 8825 ft 241 kts 300°
2026-05-04 22:51 44.86489 -63.70062 9664 ft 245 kts 300°
2026-05-04 22:51 44.87530 -63.71999 10362 ft 253 kts 301°
2026-05-04 22:51 44.88632 -63.74050 10722 ft 272 kts 301°
2026-05-04 22:51 44.89811 -63.76241 11105 ft 289 kts 301°
2026-05-04 22:52 44.91055 -63.78544 11627 ft 300 kts 302°
2026-05-04 22:52 44.92337 -63.80904 12331 ft 305 kts 302°
2026-05-04 22:52 44.93637 -63.83280 13073 ft 309 kts 302°
2026-05-04 22:52 44.94957 -63.85687 13786 ft 312 kts 302°
2026-05-04 22:53 44.96294 -63.88125 14468 ft 315 kts 302°
2026-05-04 22:53 44.97641 -63.90581 15130 ft 318 kts 302°
2026-05-04 22:53 44.98986 -63.93032 15810 ft 321 kts 301°
2026-05-04 22:53 45.00364 -63.95545 16468 ft 325 kts 301°
2026-05-04 22:54 45.01755 -63.98083 17115 ft 328 kts 301°
2026-05-04 22:54 45.03157 -64.00642 17740 ft 331 kts 301°
2026-05-04 22:54 45.04572 -64.03228 18331 ft 334 kts 301°
2026-05-04 22:54 45.06001 -64.05840 18868 ft 336 kts 301°
2026-05-04 22:55 45.07436 -64.08466 19409 ft 339 kts 301°
2026-05-04 22:55 45.08884 -64.11119 19945 ft 341 kts 301°
2026-05-04 22:55 45.10335 -64.13777 20478 ft 343 kts 301°
2026-05-04 22:55 45.11799 -64.16464 21010 ft 346 kts 301°
2026-05-04 22:56 45.13236 -64.19198 21541 ft 345 kts 296°
2026-05-04 22:56 45.14490 -64.22094 22083 ft 346 kts 296°
2026-05-04 22:56 45.15766 -64.25000 22625 ft 348 kts 296°
2026-05-04 22:56 45.17056 -64.27914 23134 ft 351 kts 296°
2026-05-04 22:57 45.18361 -64.30850 23584 ft 353 kts 296°
2026-05-04 22:57 45.19679 -64.33807 23979 ft 356 kts 296°
2026-05-04 22:57 45.21008 -64.36793 24369 ft 359 kts 297°
2026-05-04 22:57 45.22347 -64.39801 24743 ft 363 kts 297°
2026-05-04 22:58 45.23698 -64.42841 25152 ft 365 kts 297°
2026-05-04 22:58 45.25055 -64.45895 25545 ft 369 kts 297°
2026-05-04 22:58 45.26428 -64.48990 25922 ft 372 kts 297°
2026-05-04 22:58 45.27794 -64.52071 26350 ft 374 kts 297°
2026-05-04 22:59 45.29183 -64.55209 26740 ft 377 kts 297°
2026-05-04 22:59 45.30584 -64.58378 27099 ft 380 kts 297°
2026-05-04 22:59 45.31991 -64.61564 27465 ft 383 kts 297°
2026-05-04 22:59 45.33415 -64.64792 27811 ft 386 kts 297°
2026-05-04 23:00 45.34849 -64.68050 28079 ft 390 kts 299°
2026-05-04 23:00 45.36278 -64.71294 28726 ft 387 kts 297°
2026-05-04 23:00 45.37713 -64.74558 28839 ft 395 kts 297°
2026-05-04 23:00 45.39182 -64.77902 29039 ft 400 kts 297°
2026-05-04 23:01 45.40659 -64.81267 29431 ft 402 kts 298°
2026-05-04 23:01 45.42140 -64.84646 29841 ft 403 kts 298°
2026-05-04 23:01 45.43124 -64.86896 29997 ft 405 kts 298°
2026-05-04 23:01 45.44617 -64.90312 30240 ft 408 kts 298°
2026-05-04 23:02 45.46126 -64.93765 30494 ft 411 kts 298°
2026-05-04 23:02 45.47639 -64.97234 30738 ft 413 kts 298°
2026-05-04 23:02 45.49157 -65.00719 30972 ft 416 kts 298°
2026-05-04 23:02 45.50682 -65.04224 31202 ft 419 kts 298°
2026-05-04 23:03 45.52717 -65.08909 31569 ft 420 kts 298°
2026-05-04 23:03 45.53758 -65.11305 31824 ft 420 kts 298°
2026-05-04 23:03 45.55288 -65.14836 32237 ft 418 kts 298°
2026-05-04 23:03 45.56816 -65.18366 32548 ft 418 kts 298°
2026-05-04 23:04 45.58347 -65.21907 32851 ft 419 kts 298°
2026-05-04 23:04 45.59857 -65.25405 33153 ft 420 kts 298°
2026-05-04 23:04 45.61389 -65.28956 33452 ft 420 kts 298°
2026-05-04 23:04 45.62919 -65.32508 33741 ft 421 kts 298°
2026-05-04 23:05 45.64453 -65.36073 33978 ft 421 kts 298°
2026-05-04 23:05 45.65985 -65.39638 34209 ft 421 kts 298°
2026-05-04 23:05 45.67521 -65.43217 34436 ft 422 kts 298°
2026-05-04 23:05 45.69055 -65.46796 34664 ft 423 kts 298°
2026-05-04 23:06 45.70591 -65.50386 34870 ft 423 kts 298°
2026-05-04 23:06 45.72126 -65.53977 35112 ft 424 kts 298°
2026-05-04 23:06 45.73665 -65.57582 35347 ft 424 kts 298°
2026-05-04 23:06 45.75202 -65.61188 35581 ft 425 kts 298°
2026-05-04 23:07 45.76741 -65.64801 35805 ft 425 kts 298°
2026-05-04 23:07 45.78279 -65.68418 36025 ft 426 kts 298°
2026-05-04 23:07 45.79822 -65.72049 36228 ft 427 kts 298°
2026-05-04 23:07 45.81368 -65.75694 36410 ft 428 kts 298°
2026-05-04 23:08 45.82914 -65.79345 36631 ft 429 kts 298°
2026-05-04 23:08 45.84459 -65.82997 36842 ft 429 kts 298°
2026-05-04 23:08 45.86007 -65.86661 37047 ft 429 kts 298°
2026-05-04 23:08 45.87554 -65.90328 37237 ft 430 kts 298°
2026-05-04 23:09 45.89102 -65.94000 37417 ft 430 kts 298°
2026-05-04 23:09 45.90649 -65.97674 37600 ft 431 kts 298°
2026-05-04 23:09 45.92199 -66.01359 37735 ft 431 kts 298°
2026-05-04 23:09 45.93750 -66.05053 37744 ft 431 kts 298°
2026-05-04 23:10 45.96840 -66.12422 37731 ft 430 kts 298°
2026-05-04 23:10 45.99807 -66.19881 37734 ft 430 kts 296°
2026-05-04 23:11 46.02725 -66.27371 37744 ft 430 kts 297°
2026-05-04 23:11 46.05648 -66.34874 37748 ft 430 kts 297°
2026-05-04 23:12 46.08569 -66.42390 37739 ft 430 kts 297°
2026-05-04 23:12 46.11483 -66.49909 37738 ft 430 kts 297°
2026-05-04 23:13 46.14393 -66.57439 37727 ft 430 kts 297°
2026-05-04 23:13 46.17299 -66.64979 37726 ft 430 kts 297°
2026-05-04 23:14 46.20139 -66.72366 37731 ft 429 kts 297°
2026-05-04 23:14 46.23029 -66.79905 37736 ft 429 kts 297°
2026-05-04 23:15 46.25904 -66.87427 37738 ft 429 kts 297°
2026-05-04 23:15 46.28782 -66.94976 37733 ft 431 kts 297°
2026-05-04 23:16 46.31670 -67.02570 37741 ft 431 kts 297°
2026-05-04 23:16 46.34550 -67.10170 37737 ft 431 kts 297°
2026-05-04 23:17 46.37407 -67.17727 37741 ft 431 kts 297°
2026-05-04 23:17 46.40278 -67.25342 37739 ft 431 kts 297°
2026-05-04 23:18 46.43143 -67.32963 37747 ft 431 kts 297°
2026-05-04 23:18 46.46006 -67.40600 37759 ft 432 kts 297°
2026-05-04 23:19 46.48872 -67.48269 37738 ft 431 kts 297°
2026-05-04 23:19 46.51728 -67.55931 37750 ft 432 kts 297°
2026-05-04 23:20 46.54579 -67.63600 37747 ft 431 kts 297°
2026-05-04 23:20 46.57423 -67.71274 37758 ft 431 kts 297°
2026-05-04 23:21 46.60259 -67.78947 37750 ft 430 kts 297°
2026-05-04 23:21 46.63087 -67.86622 37749 ft 430 kts 297°
2026-05-04 23:22 46.65913 -67.94313 37739 ft 430 kts 297°
2026-05-04 23:22 46.68730 -68.02000 37748 ft 430 kts 297°
2026-05-04 23:23 46.71519 -68.09635 37739 ft 429 kts 297°
2026-05-04 23:23 46.74317 -68.17313 37739 ft 429 kts 297°
2026-05-04 23:24 46.77109 -68.25000 37745 ft 429 kts 297°
2026-05-04 23:24 46.79897 -68.32697 37751 ft 429 kts 297°
2026-05-04 23:25 46.82673 -68.40383 37725 ft 427 kts 297°
2026-05-04 23:25 46.85441 -68.48068 37713 ft 427 kts 297°
2026-05-04 23:26 46.88200 -68.55751 37710 ft 427 kts 297°
2026-05-04 23:26 46.90955 -68.63444 37711 ft 427 kts 297°
2026-05-04 23:27 46.93703 -68.71142 37709 ft 427 kts 297°
2026-05-04 23:27 46.96447 -68.78850 37714 ft 427 kts 297°
2026-05-04 23:28 46.99179 -68.86548 37712 ft 427 kts 296°
2026-05-04 23:28 47.01912 -68.94269 37714 ft 427 kts 296°
2026-05-04 23:29 47.04640 -69.01998 37709 ft 427 kts 296°
2026-05-04 23:29 47.07349 -69.09699 37717 ft 424 kts 296°
2026-05-04 23:30 47.10042 -69.17376 37718 ft 424 kts 296°
2026-05-04 23:30 47.12734 -69.25072 37720 ft 424 kts 296°
2026-05-04 23:31 47.15423 -69.32780 37715 ft 424 kts 296°
2026-05-04 23:31 47.18103 -69.40486 37717 ft 423 kts 296°
2026-05-04 23:32 47.20771 -69.48180 37711 ft 423 kts 296°
2026-05-04 23:32 47.23440 -69.55901 37723 ft 424 kts 296°
2026-05-04 23:33 47.26114 -69.63658 37713 ft 425 kts 296°
2026-05-04 23:33 47.28785 -69.71430 37714 ft 425 kts 296°
2026-05-04 23:34 47.31452 -69.79211 37713 ft 425 kts 296°
2026-05-04 23:34 47.34116 -69.86999 37713 ft 425 kts 296°
2026-05-04 23:35 47.36774 -69.94794 37712 ft 425 kts 296°
2026-05-04 23:35 47.39425 -70.02592 37710 ft 425 kts 296°
2026-05-04 23:36 47.42070 -70.10392 37717 ft 424 kts 296°
2026-05-04 23:36 47.44520 -70.18257 37715 ft 421 kts 291°
2026-05-04 23:37 47.46715 -70.26284 37702 ft 421 kts 292°
2026-05-04 23:37 47.48943 -70.34298 37712 ft 422 kts 292°
2026-05-04 23:38 47.51172 -70.42319 37713 ft 421 kts 292°
2026-05-04 23:38 47.53390 -70.50323 37709 ft 418 kts 292°
2026-05-04 23:39 47.55592 -70.58294 37714 ft 418 kts 292°
2026-05-04 23:39 47.57789 -70.66276 37716 ft 419 kts 292°
2026-05-04 23:40 47.59980 -70.74262 37736 ft 419 kts 292°
2026-05-04 23:40 47.62165 -70.82255 37722 ft 418 kts 292°
2026-05-04 23:41 47.64345 -70.90252 37734 ft 419 kts 292°
2026-05-04 23:41 47.66519 -70.98259 37729 ft 418 kts 292°
2026-05-04 23:42 47.68689 -71.06278 37730 ft 418 kts 291°
2026-05-04 23:42 47.70839 -71.14245 37729 ft 419 kts 291°
2026-05-04 23:43 47.72994 -71.22264 37719 ft 420 kts 291°
2026-05-04 23:43 47.75159 -71.30345 37725 ft 422 kts 291°
2026-05-04 23:44 47.77322 -71.38447 37727 ft 421 kts 291°
2026-05-04 23:44 47.79479 -71.46553 37731 ft 423 kts 291°
2026-05-04 23:45 47.81285 -71.53366 37727 ft 424 kts 291°
2026-05-04 23:45 47.83430 -71.61479 37724 ft 424 kts 291°
2026-05-04 23:46 47.85586 -71.69663 37716 ft 425 kts 291°
2026-05-04 23:46 47.87737 -71.77857 37726 ft 425 kts 291°
2026-05-04 23:47 47.89883 -71.86062 37713 ft 425 kts 291°
2026-05-04 23:47 47.92022 -71.94268 37705 ft 425 kts 291°
2026-05-04 23:48 47.94149 -72.02458 37701 ft 422 kts 291°
2026-05-04 23:48 47.96265 -72.10635 37695 ft 423 kts 291°
2026-05-04 23:49 47.98374 -72.18815 37697 ft 423 kts 290°
2026-05-04 23:49 48.00476 -72.26996 37694 ft 422 kts 290°
2026-05-04 23:50 48.02574 -72.35190 37694 ft 423 kts 290°
2026-05-04 23:50 48.04667 -72.43394 37697 ft 422 kts 290°
2026-05-04 23:51 48.06754 -72.51606 37697 ft 423 kts 290°
2026-05-04 23:51 48.08837 -72.59827 37691 ft 422 kts 290°
2026-05-04 23:52 48.10912 -72.68052 37692 ft 422 kts 290°
2026-05-04 23:52 48.12963 -72.76208 37683 ft 420 kts 290°
2026-05-04 23:53 48.15016 -72.84405 37684 ft 420 kts 290°
2026-05-04 23:53 48.17063 -72.92604 37682 ft 420 kts 290°
2026-05-04 23:54 48.19116 -73.00858 37679 ft 420 kts 290°
2026-05-04 23:54 48.21150 -73.09067 37679 ft 420 kts 290°
2026-05-04 23:55 48.23186 -73.17313 37687 ft 423 kts 290°
2026-05-04 23:56 48.26225 -73.29681 37683 ft 423 kts 290°
2026-05-04 23:56 48.28253 -73.37972 37677 ft 423 kts 289°
2026-05-04 23:57 48.30274 -73.46265 37679 ft 423 kts 289°
2026-05-04 23:57 48.32293 -73.54578 37684 ft 424 kts 289°
2026-05-04 23:58 48.34303 -73.62891 37680 ft 424 kts 289°
2026-05-04 23:58 48.36311 -73.71222 37691 ft 424 kts 289°
2026-05-04 23:59 48.38319 -73.79590 37672 ft 426 kts 289°
2026-05-04 23:59 48.40328 -73.87989 37676 ft 426 kts 289°
2026-05-05 00:00 48.42320 -73.96354 37658 ft 425 kts 289°
2026-05-05 00:00 48.44305 -74.04719 37666 ft 424 kts 289°
2026-05-05 00:01 48.46287 -74.13100 37655 ft 425 kts 289°
2026-05-05 00:01 48.48262 -74.21488 37656 ft 425 kts 288°
2026-05-05 00:02 48.50232 -74.29885 37652 ft 425 kts 288°
2026-05-05 00:02 48.52198 -74.38300 37649 ft 426 kts 288°
2026-05-05 00:03 48.54159 -74.46724 37647 ft 426 kts 288°
2026-05-05 00:03 48.56100 -74.55098 37646 ft 426 kts 288°
2026-05-05 00:04 48.58049 -74.63538 37645 ft 426 kts 288°
2026-05-05 00:04 48.59991 -74.71979 37648 ft 425 kts 288°
2026-05-05 00:05 48.61925 -74.80421 37635 ft 425 kts 288°